Preview of NWS' New Version of Forecast
This preview is not operational and should not be used for support decisions.

Regional Weather Roundup (RWR)

Issued by National Weather Service (NWS)

                            
000
ASUS43 KMKX 191700
RWRWI 

WISCONSIN REGIONAL WEATHER ROUNDUP
NATIONAL WEATHER SERVICE MILWAUKEE/SULLIVAN WI
1200 PM CDT SUN MAY 19 2019

NOTE: "FAIR" INDICATES FEW OR NO CLOUDS BELOW 12,000 FEET WITH NO
SIGNIFICANT WEATHER AND/OR OBSTRUCTIONS TO VISIBILITY.

WIZ001-002-006>008-014>016-023>028-191800-
NORTHWEST WISCONSIN
  
CITY           SKY/WX    TMP DP  RH WIND       PRES   REMARKS
SUPERIOR ARPT  MIX PCPN  35  34  96 NE24G33   29.90R WCI  23          
ASHLAND        LGT RAIN  39  33  79 NE23G32   29.84S VSB 3/4 WCI  28  
HAYWARD        LGT SNOW  34  33  96 N17G26    29.74R FOG     WCI  23  
SIREN          LGT SNOW  33  33  99 N16G26    29.77R WCI  23          
CUMBERLAND     LGT RAIN  39  37  93 N14G23    29.69R WCI  31          
RICE LAKE      LGT RAIN  43  35  74 N17G24    29.67R                  
CHETEK         RAIN      44  42  93 NE10G18   29.65R                  
LADYSMITH      CLOUDY    43  41  93 NE17G29   29.65F                  
EAU CLAIRE     LGT RAIN  45  43  93 NE13G20   29.59S FOG              
MENOMONIE      RAIN     N/A N/A N/A N16G24    29.63R                  
NEW RICHMOND   RAIN      41  39  92 N14G21    29.70R                  
OSCEOLA        CLOUDY    40  38  92 N14G23    29.75R WCI  32          
$$
 
WIZ003>005-009-010-017-018-191800-
NORTH CENTRAL WISCONSIN
  
CITY           SKY/WX    TMP DP  RH WIND       PRES   REMARKS
MANITOWISH WTR DRIZZLE   39  39 100 NE15G22   29.71F WCI  30          
ARBOR VITAE    DRIZZLE   42  40  93 NE15G22   29.67F                  
WOODRUFF       DRIZZLE   42  40  93 NE15G22   29.67F                  
RHINELANDER    LGT RAIN  44  39  82 NE15G29   29.65F                  
EAGLE RIVER    DRIZZLE   40  39  95 NE17G26   29.67F WCI  31          
LAND O LAKES   LGT RAIN  40  40 100 NE12G28   29.71F WCI  32          
PHILLIPS       DRIZZLE   40  40 100 NE18G26   29.65F WCI  31          
TOMAHAWK       LGT RAIN  41  40  94 NE9G17    29.64F                  
MEDFORD        LGT RAIN  42  41  95 NE15G24   29.59R                  
MERRILL        RAIN      44  44 100 NE13      29.61F                  
$$
 
WIZ029-030-035-036-043>047-191800-
CENTRAL WISCONSIN
  
CITY           SKY/WX    TMP DP  RH WIND       PRES   REMARKS
WAUSAU         NOT AVBL                                               
MOSINEE        LGT RAIN  45  43  93 NE7G23    29.60S                  
MARSHFIELD     LGT RAIN  45  44  97 E14G31    29.56R FOG              
STEVENS POINT  LGT RAIN  43  43 100 NE14G24   29.58F                  
WAUPACA        LGT RAIN  47  45  93 NE7       29.59F VSB 1            
WAUTOMA        CLOUDY    46  45  96 NE15      29.56F                  
WISC RAPIDS    LGT RAIN  46  43  89 E13G23    29.57R FOG              
CAMP DOUGLAS   NOT AVBL                                               
$$
 
WIZ011>013-019>022-031-037>040-048>050-191800-
NORTHEAST WISCONSIN
  
CITY           SKY/WX    TMP DP  RH WIND       PRES   REMARKS
ANTIGO         HVY RAIN  42  41  96 E18       29.63R                  
SHAWANO        LGT RAIN  47  45  91 NE15G23   29.62R                  
OCONTO         CLOUDY    43  42  96 NE12G22   29.63S                  
STURGEON BAY   RAIN      43  42  97 NE14G22   29.62S                  
GREEN BAY      RAIN      46  44  93 NE17G28   29.60F FOG              
MANITOWOC      LGT RAIN  44  44 100 VRB3      29.60S VSB 1/4          
APPLETON       CLOUDY    45  45 100 NE16      29.57F FOG              
CLINTONVILLE   LGT RAIN  45  42  91 NE14      29.61F                  
OSHKOSH        CLOUDY    47  46  97 NE12G21   29.56F FOG              
$$
 
WIZ032>034-041-042-053>061-191800-
SOUTHWEST WISCONSIN
  
CITY           SKY/WX    TMP DP  RH WIND       PRES   REMARKS
LA CROSSE      LGT RAIN  52  48  86 N8        29.52S FOG              
SPARTA         CLOUDY    46  45  99 CALM      29.53R FOG              
VIROQUA        CLOUDY   N/A N/A N/A S14       29.51R                  
BOSCOBEL       CLOUDY    57  49  74 SW16G25   29.55R                  
PRAIRIE DU CHI CLOUDY    55  47  74 W16G23    29.56R                  
PLATTEVILLE    CLOUDY    55  55 100 SW18      29.58R                  
$$

WIZ056-057-062-063-064-067-068-191800-
SOUTH CENTRAL WISCONSIN
  
CITY           SKY/WX    TMP DP  RH WIND       PRES   REMARKS
REEDSBURG      RAIN      50  50 100 NE7       29.50F                  
BARABOO/DELLS  CLOUDY    50  49  96 E10       29.51S FOG              
LONE ROCK      CLOUDY    60  56  86 W16G29    29.51R                  
MINERAL POINT  CLOUDY    54 N/A N/A SW21      29.55R                  
MADISON        TSTM      64  60  87 S8G22     29.51S                  
MIDDLETON      CLOUDY    64  61  89 S15G21    29.52S                  
WATERTOWN      CLOUDY    66  66 100 S13       29.52F                  
MONROE         LGT RAIN  58  56  95 MISG      29.56R                  
JANESVILLE     TSTM      70  61  73 S23       29.54F                  
$$
 
WIZ051-052-058>065-066-070>072-191800-
SOUTHEAST WISCONSIN
  
CITY           SKY/WX    TMP DP  RH WIND       PRES   REMARKS
MILWAUKEE      PTSUNNY   56  50  80 SE5       29.58F                  
WAUKESHA       PTSUNNY   68  57  68 S23G35    29.56F                  
MILWAUKEE/TIMM CLOUDY    52  45  76 E6        29.58F                  
RACINE         PTSUNNY   60  52  74 SE3       29.59F                  
KENOSHA        PTSUNNY   73  63  70 SW18G30   29.57F                  
FOND DU LAC    LGT RAIN  50  48  93 NE12      29.55F                  
SHEBOYGAN      CLOUDY    49  47  93 E7        29.58F FOG              
WEST BEND      CLOUDY    59  55  88 E7        29.56F                  
JUNEAU         HVY RAIN  54  53  97 N7        29.53F                  
$$

LSZ147-162-191800-
LAKE SUPERIOR
  
STATION/POSITION TIME  TEMP    WIND        PRES    WAVE
                       AIR SEA DIR/SP/G            HT/PER
                 (UTC) (F)     (DEG/KT/KT) (MB)    (FT/S)
W MID LAKE BUOY  1550   39 36   30/ 21/ 27 1012.3F   8/ 7
$$
 
LMZ867-665-643>646-191800-
LAKE MICHIGAN
  
STATION/POSITION TIME  TEMP    WIND        PRES    WAVE
                       AIR SEA DIR/SP/G            HT/PER
                 (UTC) (F)     (DEG/KT/KT) (MB)    (FT/S)
CHAMBERS ISLAND  1640           30/ 24/ 29 1002.4F
N MID LAKE BUOY  1640   40 37   40/ 21/ 23 1003.3F
NORTHPORT PIER   1640   43      50/ 13/ 19 1003.7F
KEWAUNEE LAKESHO 1630   42      30/ 17/ 24 1001.9R
SHEBOYGAN LAKESH 1600   43      10/ 12/ 13 1002.2S
MILWAUKEE LAKESH 1630   43      70/  2/  3   N/A
S MID LAKE BUOY  1640   46 39  180/ 12/ 16 1003.4R
KENOSHA   LAKESH 1600   46     100/  2/  3 1002.4
$$

TC  - TEMPERATURE IN CELSIUS
VSB - VISIBILITY IN STATUTE MILES
WCI - WIND CHILL INDEX
HX  - HEAT INDEX